Weather in Tokko

Russia / Sakha (Yakutia) Republic     59°58′49″N   119°50′05″E
temp.,
°C
wind,
m/s
gust,
m/s
humid.,
%
clouds,
%
prec.,
mm/h
press.,
hPa
HPBL,
m
12 may, wed
wed1200:00+1n2699100 1.0 1014341
03:00+1n3898100 2.3 1013399
06:00+1n3897100 1.2 1012392
09:00+2nne488098 1.5 1013879
12:00+4nne467490 0.1 10131025
15:00+5nne3565100 0.1 10131177
18:00+7n2459100 0.0 10131291
21:00+4n1172100 0.1 101411
13 may, thu
thu1300:00+2nnw1176100 0.0 101410
03:000nnw118171 0.0 101511
06:00+1nnw127811 0.0 101650
09:00+6ne2353100 0.0 1015687
12:00+9nne334386 0.0 10141818
15:00+10nne2338100 0.0 10132104
18:00+11nne233784 0.0 10122005
21:00+7nnw2256100 0.0 101415
14 may, fri
fri1400:00+3nnw116572 0.0 101410
03:00+1nnw117272 0.0 101510
06:00+3nw116796 0.0 101520
09:00+8n124566 0.0 1014548
12:00+12n22315 0.0 10132200
15:00+13n222679 0.0 10112626
18:00+13nnw2227100 0.0 10102440
21:00+8nw114771 0.0 101110
15 may, sat
sat1500:00+5ssw11565 0.0 101210
03:00+3ssw116820 0.0 101110
06:00+4ssw12655 0.0 101046
09:00+11s24427 0.0 1008716
12:00+14ssw343026 0.0 10052123
15:00+15ssw4527100 0.0 10022518
18:00+15ssw3627100 0.0 10002751
21:00+8w397999 0.1 1003503
16 may, sun
sun1600:00+6sw2481100 0.4 1004184
03:00+4sw219099 0.4 100326
06:00+4wnw2387100 0.0 1003338
09:00+5wnw1378100 0.1 1004600
12:00+10w2344100 0.1 10031937
15:00+4w51093100 1.9 1005574
18:00+8w475879 1.1 10051457
21:00+4wnw38606 1.1 1007293